[Iaude] MPEC V175: 2023 VT5 [a=1.62,e=0.36,i=12.5,H=23.3]
    mpec at marsden.cfa.harvard.edu 
    mpec at marsden.cfa.harvard.edu
       
    Fri Nov 10 14:18:17 EST 2023
    
    
  
M.P.E.C. 2023-V175                            Issued 2023 November 10, 19:16 UT
     The Minor Planet Electronic Circulars contain information on unusual
         minor planets, routine data on comets and natural satellites,
         and occasional editorial announcements.  They are published
    on behalf of Division F of the International Astronomical Union by the
          Minor Planet Center, Smithsonian Astrophysical Observatory,
                          Cambridge, MA 02138, U.S.A.
			  
             Prepared using the Tamkin Foundation Computer Network
                              MPC at CFA.HARVARD.EDU
            URL https://www.minorplanetcenter.net/    ISSN 1523-6714
                                    2023 VT5                                    
Observations:
     K23V05T  C2023 11 04.57818504 29 12.626+16 55 05.39         21.63GVEV175F51
     K23V05T  C2023 11 04.59097404 29 11.320+16 54 31.12         21.58GVEV175F51
     K23V05T  C2023 11 04.60384404 29 09.964+16 53 56.24         22.05GVEV175F51
     K23V05T* C2023 11 08.38192004 23 16.902+14 11 43.35         21.45wXEV175F52
     K23V05T  C2023 11 08.39294804 23 15.741+14 11 16.15         21.86wXEV175F52
     K23V05T  C2023 11 08.41477804 23 13.446+14 10 22.79         22.32wXEV175F52
     K23V05T KC2023 11 09.24034704 21 55.380+13 36 41.00         21.74GVEV175V06
     K23V05T KC2023 11 09.24358504 21 55.060+13 36 33.00         21.95GVEV175V06
     K23V05T KC2023 11 09.24682304 21 54.770+13 36 25.10         22.33GVEV175V06
     K23V05T KC2023 11 09.25006204 21 54.370+13 36 17.90         21.91GVEV175V06
Observer details:
F51 Pan-STARRS 1, Haleakala.  Observers J. Bulger, T. Lowe, P. Minguez, A.
    Schultz, I. Smith.  Measurers K. Chambers, T. de Boer, J. Fairlamb, H.
    Gao, M. Huber, C.-C. Lin, E. Magnier, Y. Ramanjooloo, R. Wainscoat, R.
    Weryk.  1.8-m Ritchey-Chretien + CCD.
F52 Pan-STARRS 2, Haleakala.  Observers J. Bulger, T. Lowe, P. Minguez, A.
    Schultz, I. Smith.  Measurers K. Chambers, T. de Boer, J. Fairlamb, H.
    Gao, M. Huber, C.-C. Lin, E. Magnier, Y. Ramanjooloo, R. Wainscoat, R.
    Weryk.  1.8-m Ritchey-Chretien + CCD.
V06 Catalina Sky Survey-Kuiper.  Observer H. Groeller.  Measurers E. C.
    Beshore, D. Fay, J. B. Fazekas, D. C. Fuls, A. R. Gibbs, A. D. Grauer, H.
    Groeller, J. K. Hogan, R. A. Kowalski, S. M. Larson, G. J. Leonard, D.
    Rankin, R. L. Seaman, F. C. Shelly, K. W. Wierzchos.  1.55-m reflector +
    1K CCD.
Orbital elements:
2023 VT5                                                 Earth MOID = 0.1450 AU
Epoch 2023 Sept. 13.0 TT = JDT 2460200.5                MPC                     
M   9.74395              (2000.0)            P               Q                  
n   0.47795780     Peri.  116.07812     +0.91622858     +0.37283843             
a   1.6201044      Node   222.46819     -0.39867000     +0.88479618             
e   0.3564739      Incl.   12.54780     +0.03984251     +0.27951247             
P   2.06           H   23.30          G   0.15           U   9                  
Residuals in seconds of arc
231104 F51  0.0   0.2-    231108 F52  0.0   0.1-    231109 V06  0.6+  0.3-
231104 F51  0.2+  0.1+    231108 F52  0.0   0.1-    231109 V06  0.3-  0.3+
231104 F51  0.2-  0.1+    231109 V06  0.2-  0.1+
231108 F52  0.1+  0.2+    231109 V06  0.0   0.1-
Ephemeris:
2023 VT5                 a,e,i = 1.62, 0.36, 13                  q = 1.0426
Date    TT    R. A. (2000) Decl.     Delta      r    Elong.  Phase     V
2023 10 11    04 54 00.9 +37 20 24   0.2549  1.1457   119.5    49.3    22.5
...
2023 10 26    04 42 46.8 +24 33 49   0.2665  1.2092   139.4    32.3    22.2
...
2023 11 03    04 31 38.6 +18 06 39   0.2827  1.2465   150.7    22.9    22.1
...
2023 11 09    04 22 17.2 +13 46 36   0.3009  1.2756   158.5    16.5    22.1
2023 11 10    04 20 42.3 +13 06 37   0.3045  1.2805   159.7    15.6    22.1
2023 11 11    04 19 07.6 +12 27 41   0.3083  1.2854   160.8    14.7    22.1
...
2023 11 17    04 09 55.2 +08 57 56   0.3344  1.3154   165.6    10.7    22.2
...
2023 11 25    03 59 09.9 +05 25 03   0.3784  1.3561   164.8    11.0    22.5
...
2023 12 10    03 46 16.4 +01 52 52   0.4880  1.4333   151.7    19.0    23.5
A. U. Tomatic                (C) Copyright 2023 MPC           M.P.E.C. 2023-V175
    
    
More information about the Iaude
mailing list